Regional Weather Roundup
Issued by NWS Jackson, KY

Home | Current Version | Previous Version | Text Only | Print | Product List | Glossary Off
Versions: 1 2 3 4 5 6 7 8 9 10 11 12 13 14 15 16 17 18 19 20 21 22 23 24 25 26 27 28 29 30 31 32 33 34 35 36 37 38 39 40 41 42 43 44 45 46 47 48 49 50

000
ASUS43 KJKL 271110
RWRJKL

EAST KENTUCKY HOURLY WEATHER ROUNDUP
NATIONAL WEATHER SERVICE JACKSON KY
700 AM EDT FRI MAY 27 2016

NOTE: "FAIR" INDICATES FEW OR NO CLOUDS BELOW 12,000 FEET WITH
NO SIGNIFICANT WEATHER AND/OR OBSTRUCTIONS TO VISIBILITY.

* THESE REPORTS ARE NOT UNDER NWS QUALITY CONTROL AND MAY NOT
  REPORT WEATHER SUCH AS PRECIPITATION AND FOG.

KYZ079-080-083-085-087-088-110-112-115-119-120-271200
...EASTERN KENTUCKY...

CITY           SKY/WX    TMP DP  RH WIND       PRES   REMARKS
JACKSON        MOCLDY    66  61  84 CALM      30.10R
LONDON         CLEAR     61  59  93 CALM      30.10R
SOMERSET*      CLOUDY    59  59 100 CALM      30.10R
MONTICELLO*    CLEAR     63  61  93 W10       30.10R
WILLIAMSBURG*  SUNNY     63  61  94 SE6       30.11R
MIDDLESBORO*   CLEAR     58  58 100 CALM      30.14R
HARLAN APT*    CLOUDY    61  61 100 CALM      30.14R VSB 1/2
HAZARD APT*    CLOUDY    64  64 100 CALM      30.10R
BLACK MTN*       N/A     63  57  82 S7          N/A
PIKE CO APT*     N/A     65  62  91 SE3       30.11R
MOREHEAD APT*  CLOUDY    64  63  94 SE5       30.08S
ASHLAND*       CLOUDY    66  64  94 SE3       30.04R
$$

KYZ035-036-041-042-044-050-067-078-099-271200
...CENTRAL KENTUCKY...

CITY           SKY/WX    TMP DP  RH WIND       PRES   REMARKS
MT STERLING*   CLOUDY    66  63  88 SW5       30.08R
FLEMING/MASON* CLOUDY    62  62  99 CALM      30.08R
DANVILLE*      CLEAR     63  61  94 CALM      30.07S
RICHMOND*      PTCLDY    68  61  77 S8        30.07R
LEXINGTON      CLOUDY    64  61  90 S3        30.06R
FRANKFORT      CLOUDY    63  60  90 SE3       30.04R
LOUISVILLE     CLOUDY    65  62  90 SE5       30.02R
LEBANON*       PTSUNNY   63  63 100 CALM      30.06R FOG
GLASGOW*       PTCLDY    62  62 100 CALM      30.04R FOG
BOWLING GREEN  CLOUDY    63  62  97 SE3       30.03R FOG
$$

KYZ091>093-OHZ055-061-077-WVZ005-015-034-035-042-271200
...SOUTHERN OHIO/WEST VIRGINIA...

CITY           SKY/WX    TMP DP  RH WIND       PRES   REMARKS
COVINGTON      MOCLDY    61  61 100 S6        30.04R
COLUMBUS       CLOUDY    65  61  87 CALM      30.04R
DAYTON         MOCLDY    64  62  93 S8        30.04S
WILMINGTON     CLOUDY    63  61  93 S6        30.05R
HUNTINGTON     MOCLDY    67  63  87 S6        30.05F
CHARLESTON       N/A     61  59  93 CALM      30.08S
PINEVILLE*     FOG       58  56  91 MISG      30.20R VSB 1
BECKLEY          N/A     59  55  87 CALM      30.17R
BLUEFIELD        N/A     58  54  86 CALM      30.20R
LOGAN CO APT*    N/A     66  61  82 CALM      30.12R
$$

VAZ002-007-008-TNZ017-027-036-066-071-271200
...SOUTHWEST VIRGINIA/EAST TENNESSEE...

CITY           SKY/WX    TMP DP  RH WIND       PRES   REMARKS
WISE*            N/A     61  59  94 S3        30.19R
JONESVILLE*      N/A     57  57 100 CALM      30.16R FOG
ABINGDON*      MOCLDY    63  62  98 E5        30.16S
BRISTOL        MOCLDY    58  57  97 CALM      30.14S FOG
SEVIERVILLE*   SUNNY     61  61 100 CALM      30.11R
KNOXVILLE      MOCLDY    65  63  93 N6        30.10R
OAK RIDGE      CLEAR     63  61  93 CALM      30.12R
CROSSVILLE     CLEAR     62  59  90 CALM      30.13R FOG
NASHVILLE      CLOUDY    65  62  90 S3        30.04R
$$

...KEY TO REMARKS...
VSB - VISIBILITY IN MILES
WCI - WIND CHILL INDEX
HX  - HEAT INDEX

$$



USA.gov is the U.S. government's official web portal to all federal, state and local government web resources and services.